When you browse on this site, cookies collect data to enhance your experience and personalize the content and advertising you see.
Visit our Privacy Policy to learn more. By continuing to use the site, you agree to this use of cookies and data.
  • In Netherlands
  • List of Countries
  • For 7 days
  • Water Temperature
  • Weather Map
  • Weather Widgets
  • user-avatar
    Login

    Hourly Weather Yeghegnadzor

    Today, 15 October, Tuesday

    Time Temperature Precipitation Wind Pressure Humidity
    00:00 +13°C° 0 mm 1 mps 659 mmHg 38%
    01:00 +13°C° 0 mm 1 mps 659 mmHg 38%
    02:00 +13°C° 0 mm 1 mps 659 mmHg 38%
    03:00 +12°C° 0 mm 1 mps 658 mmHg 39%
    04:00 +12°C° 0 mm 1 mps 658 mmHg 40%
    05:00 +11°C° 0 mm 1 mps 658 mmHg 41%
    06:00 +11°C° 0 mm 1 mps 658 mmHg 42%
    07:00 +14°C° 0 mm 1 mps 659 mmHg 37%
    08:00 +18°C° 0 mm 1 mps 660 mmHg 31%
    09:00 +20°C° 0 mm 1 mps 661 mmHg 25%
    10:00 +21°C° 0 mm 1 mps 660 mmHg 22%
    11:00 +21°C° 0 mm 2 mps 660 mmHg 20%
    12:00 +24°C° 0 mm 2 mps 660 mmHg 18%
    13:00 +24°C° 0 mm 2 mps 660 mmHg 17%
    14:00 +24°C° 0 mm 2 mps 659 mmHg 17%
    15:00 +24°C° 0 mm 2 mps 659 mmHg 16%
    16:00 +22°C° 0 mm 1 mps 658 mmHg 20%
    17:00 +19°C° 0 mm 1 mps 657 mmHg 24%
    18:00 +15°C° 0 mm 0 mps 657 mmHg 27%
    19:00 +15°C° 0 mm 0 mps 657 mmHg 28%
    20:00 +15°C° 0 mm 1 mps 657 mmHg 28%
    21:00 +15°C° 0 mm 1 mps 657 mmHg 29%
    22:00 +14°C° 0 mm 1 mps 657 mmHg 29%
    23:00 +14°C° 0 mm 1 mps 656 mmHg 29%

    Tomorrow, 16 October, Wednesday

    Time Temperature Precipitation Wind Pressure Humidity
    00:00 +13°C° 0 mm 1 mps 656 mmHg 30%
    01:00 +13°C° 0 mm 1 mps 656 mmHg 30%
    02:00 +13°C° 0 mm 1 mps 656 mmHg 30%
    03:00 +12°C° 0 mm 1 mps 656 mmHg 30%
    04:00 +12°C° 0 mm 1 mps 655 mmHg 30%
    05:00 +12°C° 0 mm 1 mps 655 mmHg 29%
    06:00 +12°C° 0 mm 1 mps 655 mmHg 29%
    07:00 +14°C° 0 mm 1 mps 656 mmHg 25%
    08:00 +18°C° 0 mm 1 mps 657 mmHg 21%
    09:00 +19°C° 0 mm 0 mps 658 mmHg 17%
    10:00 +22°C° 0 mm 1 mps 658 mmHg 16%
    11:00 +23°C° 0 mm 1 mps 658 mmHg 15%
    12:00 +24°C° 0 mm 2 mps 658 mmHg 13%
    13:00 +25°C° 0 mm 2 mps 658 mmHg 13%
    14:00 +25°C° 0 mm 2 mps 657 mmHg 13%
    15:00 +25°C° 0 mm 2 mps 657 mmHg 14%
    16:00 +21°C° 0 mm 2 mps 656 mmHg 16%
    17:00 +20°C° 0 mm 1 mps 656 mmHg 19%
    18:00 +16°C° 0 mm 0 mps 655 mmHg 22%
    19:00 +15°C° 0 mm 0 mps 655 mmHg 23%
    20:00 +16°C° 0 mm 1 mps 655 mmHg 24%
    21:00 +15°C° 0 mm 1 mps 656 mmHg 24%
    22:00 +15°C° 0 mm 1 mps 656 mmHg 24%
    23:00 +15°C° 0 mm 1 mps 656 mmHg 25%

    Day after tomorrow, 17 October, Thursday

    Time Temperature Precipitation Wind Pressure Humidity
    00:00 +15°C° 0 mm 1 mps 656 mmHg 25%
    01:00 +14°C° 0 mm 1 mps 656 mmHg 25%
    02:00 +14°C° 0 mm 1 mps 655 mmHg 25%
    03:00 +13°C° 0 mm 1 mps 655 mmHg 26%
    04:00 +13°C° 0 mm 1 mps 655 mmHg 26%
    05:00 +13°C° 0 mm 1 mps 655 mmHg 26%
    06:00 +12°C° 0 mm 1 mps 655 mmHg 27%
    07:00 +15°C° 0 mm 1 mps 656 mmHg 23%
    08:00 +19°C° 0 mm 1 mps 657 mmHg 19%
    09:00 +22°C° 0 mm 1 mps 658 mmHg 16%
    10:00 +23°C° 0 mm 1 mps 658 mmHg 15%
    11:00 +24°C° 0 mm 2 mps 658 mmHg 14%
    12:00 +25°C° 0 mm 2 mps 658 mmHg 13%
    13:00 +25°C° 0 mm 2 mps 658 mmHg 13%
    14:00 +25°C° 0 mm 2 mps 658 mmHg 13%
    15:00 +25°C° 0 mm 2 mps 657 mmHg 14%
    16:00 +23°C° 0 mm 1 mps 657 mmHg 16%
    17:00 +20°C° 0 mm 1 mps 656 mmHg 19%
    18:00 +16°C° 0 mm 0 mps 656 mmHg 22%
    19:00 +18°C° 0 mm 1 mps 656 mmHg 22%
    20:00 +16°C° 0 mm 1 mps 656 mmHg 22%
    21:00 +16°C° 0 mm 1 mps 656 mmHg 22%
    22:00 +15°C° 0 mm 1 mps 656 mmHg 23%
    23:00 +15°C° 0 mm 1 mps 655 mmHg 23%

    18 October, Friday

    Time Temperature Precipitation Wind Pressure Humidity
    00:00 +15°C° 0 mm 1 mps 655 mmHg 24%
    01:00 +14°C° 0 mm 1 mps 655 mmHg 24%
    02:00 +14°C° 0 mm 1 mps 655 mmHg 25%
    03:00 +14°C° 0 mm 1 mps 655 mmHg 25%
    04:00 +13°C° 0 mm 1 mps 655 mmHg 27%
    05:00 +13°C° 0 mm 1 mps 655 mmHg 29%
    06:00 +13°C° 0 mm 1 mps 655 mmHg 30%
    07:00 +15°C° 0 mm 1 mps 655 mmHg 28%
    08:00 +19°C° 0 mm 1 mps 656 mmHg 25%
    09:00 +21°C° 0 mm 1 mps 657 mmHg 23%
    10:00 +22°C° 0 mm 1 mps 657 mmHg 23%
    11:00 +23°C° 0 mm 2 mps 657 mmHg 24%
    12:00 +24°C° 0 mm 3 mps 657 mmHg 24%
    13:00 +24°C° 0 mm 3 mps 656 mmHg 25%
    14:00 +25°C° 0 mm 3 mps 656 mmHg 26%
    15:00 +25°C° 0 mm 3 mps 655 mmHg 26%
    16:00 +23°C° 0 mm 2 mps 655 mmHg 31%
    17:00 +20°C° 0 mm 1 mps 654 mmHg 35%
    18:00 +16°C° 0 mm 0 mps 654 mmHg 40%
    19:00 +16°C° 0 mm 0 mps 654 mmHg 41%
    20:00 +18°C° 0 mm 1 mps 654 mmHg 41%
    21:00 +16°C° 0 mm 1 mps 654 mmHg 42%
    22:00 +16°C° 0 mm 1 mps 654 mmHg 43%
    23:00 +16°C° 0 mm 1 mps 654 mmHg 44%

    19 October, Saturday

    Time Temperature Precipitation Wind Pressure Humidity
    00:00 +16°C° 0 mm 1 mps 654 mmHg 45%
    01:00 +15°C° 0 mm 1 mps 654 mmHg 46%
    02:00 +15°C° 0 mm 1 mps 654 mmHg 47%
    03:00 +15°C° 0 mm 1 mps 654 mmHg 48%
    04:00 +15°C° 0 mm 1 mps 654 mmHg 51%
    05:00 +14°C° 0 mm 1 mps 654 mmHg 54%
    06:00 +14°C° 0 mm 1 mps 654 mmHg 57%
    07:00 +16°C° 0 mm 1 mps 655 mmHg 51%
    08:00 +19°C° 0 mm 1 mps 656 mmHg 44%
    09:00 +21°C° 0 mm 1 mps 656 mmHg 37%
    10:00 +22°C° 0 mm 1 mps 656 mmHg 35%
    11:00 +23°C° 0 mm 1 mps 656 mmHg 33%
    12:00 +24°C° 0 mm 2 mps 657 mmHg 31%
    13:00 +24°C° 0 mm 2 mps 656 mmHg 30%
    14:00 +24°C° 0 mm 2 mps 656 mmHg 29%
    15:00 +24°C° 0 mm 2 mps 656 mmHg 29%
    16:00 +23°C° 0 mm 2 mps 656 mmHg 33%
    17:00 +21°C° 0 mm 1 mps 656 mmHg 38%
    18:00 +19°C° 0 mm 1 mps 655 mmHg 42%
    19:00 +18°C° 0 mm 1 mps 656 mmHg 49%
    20:00 +18°C° 0 mm 1 mps 656 mmHg 55%
    21:00 +16°C° 0 mm 1 mps 656 mmHg 61%
    22:00 +16°C° 0.1 mm 1 mps 656 mmHg 62%
    23:00 +16°C° 0.1 mm 1 mps 656 mmHg 63%

    20 October, Sunday

    Time Temperature Precipitation Wind Pressure Humidity
    00:00 +16°C° 0.1 mm 1 mps 656 mmHg 64%
    01:00 +16°C° 0 mm 1 mps 656 mmHg 66%
    02:00 +15°C° 0 mm 1 mps 655 mmHg 68%
    03:00 +14°C° 0 mm 1 mps 655 mmHg 69%
    04:00 +14°C° 0 mm 1 mps 655 mmHg 70%
    05:00 +13°C° 0 mm 1 mps 655 mmHg 72%
    06:00 +13°C° 0 mm 1 mps 655 mmHg 73%
    07:00 +15°C° 0 mm 1 mps 655 mmHg 65%
    08:00 +16°C° 0 mm 1 mps 656 mmHg 58%
    09:00 +19°C° 0 mm 1 mps 657 mmHg 50%
    10:00 +20°C° 0.2 mm 1 mps 657 mmHg 48%
    11:00 +20°C° 0.2 mm 2 mps 657 mmHg 46%
    12:00 +21°C° 0.2 mm 2 mps 656 mmHg 43%
    13:00 +21°C° 0.4 mm 2 mps 656 mmHg 42%
    14:00 +21°C° 0.4 mm 2 mps 656 mmHg 42%
    15:00 +21°C° 0.4 mm 2 mps 656 mmHg 41%
    16:00 +20°C° 0.3 mm 2 mps 655 mmHg 47%
    17:00 +19°C° 0.3 mm 1 mps 655 mmHg 53%
    18:00 +18°C° 0.3 mm 1 mps 655 mmHg 59%
    19:00 +16°C° 0.3 mm 1 mps 655 mmHg 60%
    20:00 +16°C° 0.3 mm 1 mps 655 mmHg 62%
    21:00 +16°C° 0.3 mm 1 mps 655 mmHg 63%
    22:00 +15°C° 0.2 mm 1 mps 655 mmHg 65%
    23:00 +15°C° 0.2 mm 1 mps 655 mmHg 67%
    Show more